Simultaneous Nadir Overpasses (SNOs) Predictions

Prediction of SNOs between FY3D and TERRA Satellite Orbit:

Table of predicted SNOs for the next 14.0 days since TLE Epoch: 3/26/2022
Index Date (FY3D) Time (FY3D) Lat,Lon (FY3D) SZA (FY3D ) Date (TERRA) Time (TERRA) Lat,Lon (TERRA) SZA (TERRA ) Distance(km) Time Diff (sec)
1 03/26/2022 16:52:39 -71.49, 106.05 110.99 03/26/2022 16:53:50 -71.39, 106.92 111.10 33.07 71
2 03/26/2022 17:43:19 71.11, -85.96 68.61 03/26/2022 17:43:21 71.08, -85.93 68.58 3.34 2
3 03/26/2022 18:34:01 -71.01, 81.52 111.51 03/26/2022 18:32:50 -71.01, 81.60 111.51 2.66 71
4 03/29/2022 08:19:43 71.20, 54.80 67.68 03/29/2022 08:20:49 71.20, 54.87 67.68 2.54 66
5 03/29/2022 09:10:25 -71.10,-137.70 112.44 03/29/2022 09:10:19 -71.08,-137.69 112.46 1.88 6
6 03/29/2022 10:01:03 70.61, 30.42 67.05 03/29/2022 09:59:52 70.65, 29.30 67.11 41.76 71
7 03/31/2022 23:46:49 -71.19, 3.06 113.36 03/31/2022 23:47:47 -71.20, 3.10 113.36 1.52 58
8 04/01/2022 00:37:34 71.07, 170.57 66.51 04/01/2022 00:37:14 71.09, 170.58 66.53 2.04 20
9 04/01/2022 01:28:03 -70.29, -20.81 114.30 04/01/2022 01:26:55 -70.38, -22.87 114.20 77.45 68
10 04/03/2022 15:13:58 71.18, -48.68 65.62 04/03/2022 15:14:42 71.19, -48.66 65.63 1.61 44
11 04/03/2022 16:04:40 -71.06, 118.83 114.52 04/03/2022 16:04:12 -71.08, 118.80 114.50 2.19 28
12 04/06/2022 06:41:03 -71.17,-100.42 115.41 04/06/2022 06:41:39 -71.17,-100.45 115.41 1.36 36
13 04/06/2022 07:31:48 71.06, 67.07 64.48 04/06/2022 07:31:06 71.06, 67.02 64.47 2.04 42
14 04/08/2022 22:08:12 71.18,-152.20 63.61 04/08/2022 22:08:33 71.19,-152.17 63.62 1.55 21
15 04/08/2022 22:58:55 -71.10, 15.26 116.48 04/08/2022 22:58:03 -71.08, 15.29 116.50 2.42 52



Historial Predications of SNOs between FY3D and TERRA
